COSMOS 2251 DEB

Satellite information

Favourite Embed

Satellite Type and Status

DEBRISIN ORBIT

Key statistics

Satellite COSMOS 2251 DEB at a glance.

Uptime

11816

Days in orbit

Revolutions

≈ 14.3

Per day

Orbit

LEO

Low Earth Orbit

Inclination

74.0

Latest

Satellite identification and parameters

Extended collection of information and parameters for COSMOS 2251 DEB.

Object identification

Identified? True

Debris? True

Object name: COSMOS 2251 DEB

International designator: 1993-036AYL

Object number (NORAD): 36073

Object ID (CCSDS): 36073

Country: COMMONWEALTH OF INDEPENDENT STATES (CIS)

Current information (Y/N): Y

RCS size: SMALL

Orbital parameters

Period: 100.359 minutes

Inclination: 74.0319 deg

SMA: 7153.717 km

Apoapsis: 792.923 km

Periapsis: 758.241 km

RAAN: 66.4755 deg

Eccentricy: 0.0024241

Argument of periapsis: 153.2011 deg

Mean anomaly: 207.0399 deg

Mean motion: 14.34845518 rev/day

Mean motion (dot): 0.00001137 rev/day2

B* drag term: 0.00040831898 1/REarth

Two-line elements (TLE)

Creation date: Oct. 17, 2025, 5:48 p.m.

Reference frame: TEME

Reference center: EARTH

Epoch: Oct. 17, 2025, 1:05 a.m. UTC

TLE line 0: 0 COSMOS 2251 DEB

TLE line 1: 1 36073U 93036AYL 25290.04569488 .00001137 00000-0 40832-3 0 9994

TLE line 2: 2 36073 74.0319 66.4755 0024241 153.2011 207.0399 14.34845518693948

Live tracking on map

Real-time ground track for satellite COSMOS 2251 DEB.

In-orbit conjunctions

A list of the most updated potential collisions computed for object COSMOS 2251 DEB.

Target Orbit TCA Probability of collision Miss distance Type
CZ-6A DEB SSO 2025-05-03 22:49:49 0.0001985465 151.0 (m) DEBRIS
CZ-6A DEB LEO 2025-01-20 21:38:55 0.0001957781 400.0 (m) DEBRIS
SL-8 R/B LEO 2024-07-01 04:31:35 0.0001149323 1000.0 (m) ROCKET BODY

Associated space launch

Military communications satellite. Destroyed in a collision with Iridium 33.

COSMOS 2251 DEB was lifted into orbit during the mission ‘Kosmos-3M | Strela-2M 51’, on board a Kosmos-3M space rocket.

The launch took place on June 16, 1993, 4:17 a.m. from 132/1 (132L).

For more information about the launch, click the button.

Launch to space Kosmos-3M | Strela-2M 51
Kosmos-3M | Strela-2M 51

Agency: N/A

Status: Launch Successful

Launch date: June 16, 1993, 4:17 a.m. UTC

Rocket: Kosmos-3M

Launch pad: 132/1 (132L)

Location: Plesetsk Cosmodrome, Russian Federation

...

Latest news about this satellite

There are no fresh news available about this satellite. Check back as we update our databases every day.


Newsletter sign-up

Weekly statistics, charts and insights to help you stay on top of the space industry.